{"data":{"norad_id":52563,"epoch":"2026-09-19T19:36:53.608896Z","epoch_age_seconds":122244,"freshness":"FRESH","line1":"1 52563U 22051AG  26262.81728714  .00001018  00000+0  40067-4 0  9997","line2":"2 52563  53.1606 329.0245 0001065  95.8721 264.2404 15.35404037240867","mean_motion":15.35404037,"eccentricity":0.0001065,"inclination_deg":53.1606,"raan_deg":329.0245,"arg_perigee_deg":95.8721,"mean_anomaly_deg":264.2404,"bstar":4.0067e-5,"rev_number":24086,"period_min":93.786388813565,"perigee_km":458.99242513393,"apogee_km":460.44888881487,"semimajor_km":6837.8576569744,"source":"CELESTRAK","updated_at":"2026-09-20T09:00:40.063178Z"}}